Portada
METAR-TAF:

METAR-TAF

Aeroports :

Longreach, Austràlia

latitud: 23-26-03S, longitud: 144-16-49E, altitud: 191 m

Observació

L'informe es va fer fa 19 minuts, a les 20:00 UTC
Vent 10 kt del Est
Temperatura 26°C
Humitat 51%
Pressió 1011 hPa
Visibilitat 10 km o més

METAR: YLRE 092000Z AUTO 09010KT 9999 // NCD 26/15 Q1011

Hora: 06:19 (20:19 UTC)


TAF: manca

Observacions i pronòstics meteorològics de més de 4000 aeroports (METAR i TAF).

Les estacions disponibles són els punts grocs i vermells al mapa.

Posi el ratolí al punt desitjat per veure el nom de l'estació.

Feu clic per veure les observacions i els pronòstics meteorològics.

Per canviar el mapa: feu clic els botons verds amb una creu de color negre per apropar; al botó verd amb un guió per allunyar la imatge; o en les fletxes verdes per a mapes adjacents.


METAR-TAF: